Regional Weather Roundup
Issued by NWS

Home | Current Version | Previous Version | Graphics & Text | Print | Product List | Glossary On
Versions: 1 2 3 4 5 6 7 8 9 10 11 12 13 14 15 16 17 18 19 20 21 22 23 24 25 26 27 28 29 30 31 32 33 34 35 36 37 38 39 40 41 42 43 44 45 46 47 48 49 50
348
ASUS44 KLIX 221710
RWRLA
LOUISIANA WEATHER ROUNDUP
NATIONAL WEATHER SERVICE NEW ORLEANS LA
1100 AM CST SAT NOV 22 2014

NOTE: "FAIR" INDICATES FEW OR NO CLOUDS BELOW 12,000 FEET WITH NO
      SIGNIFICANT WEATHER AND/OR OBSTRUCTIONS TO VISIBILITY.
      SKY/WX - SKY CONDITION AND SIGNIFICANT WEATHER.
      TMP - AIR TEMPERATURE.    DP   - DEWPOINT TEMPERATURE.
      RH  - RELATIVE HUMIDITY.  PRES - PRESSURE.
      HX  - HEAT INDEX.         WCI  - WIND CHILL INDEX.

*  THESE STATIONS ARE NOT NWS OR FAA STATIONS AND ARE NOT UNDER
   NWS QUALITY CONTROL.

LAZ040-048-061>063-065-066-069-221800-
SOUTHEAST LOUISIANA

CITY           SKY/WX    TMP DP  RH WIND       PRES   REMARKS
N.O. AUDUBON     N/A     67  60  77 MISG        N/A
N.O. INTL ARPT CLOUDY    68  58  70 E14G21    30.19F
N.O. LAKEFRONT CLOUDY    65  56  72 E15       30.20F
N.O. DOWNTOWN* FAIR      64  55  72 CALM      30.20F
SLIDELL        PTSUNNY   69  56  62 SE12      30.21F
BATON ROUGE    CLOUDY    66  55  67 E15       30.16F
BOOTHVILLE     CLOUDY    69  64  84 E12       30.20F
BELLE CHASSE   CLOUDY    70  58  65 E16G24    30.18F
BOGALUSA*        N/A     69  52  54 E7        30.23F
NEW ROADS*     FAIR      64  55  70 E9G21     30.16F
GONZALES*      FAIR      64  56  76 NE7       30.17F
HAMMOND*       CLOUDY    68  54  60 SE9       30.21F
HOUMA*         CLOUDY    70  61  73 E21       30.17F
PORT FOURCHON* SUNNY     68  63  83 E10       30.19F

$$

LAZ041-044-053-054-221800-
SOUTHWEST LOUISIANA

CITY           SKY/WX    TMP DP  RH WIND       PRES   REMARKS
LAKE CHARLES   PTSUNNY   68  59  73 E14       30.09F
LAFAYETTE      CLOUDY    66  56  70 VRB5      30.13F
PATTERSON      CLOUDY    66  57  72 E8        30.17F
SALT POINT       N/A     69  60  73 SE9       30.11F
NEW IBERIA     CLOUDY    70  58  65 E17       30.13F
CHENAULT AIRPK MOSUNNY   66  59  77 E12       30.11F

$$

LAZ027-028-221800-
CENTRAL LOUISIANA

CITY           SKY/WX    TMP DP  RH WIND       PRES   REMARKS
FORT POLK      MOSUNNY   63  56  77 E8        30.10F
ALEXANDRIA INT PTSUNNY   68  54  60 SE14      30.13F
ALEXANDRIA     PTSUNNY   68  55  63 SE12      30.16F

$$

LAZ001-002-221800-
NORTHWEST LOUISIANA

CITY           SKY/WX    TMP DP  RH WIND       PRES   REMARKS
SHREVEPORT     MOSUNNY   68  56  65 SE14G20   30.11F
BARKSDALE AFB  SUNNY     66  56  69 S18G24    30.12F
DTN SHREVEPORT SUNNY     65  53  65 SE13      30.12F

$$

LAZ014-016-221800-
NORTHEAST LOUISIANA

CITY           SKY/WX    TMP DP  RH WIND       PRES   REMARKS
MONROE         SUNNY     67  52  58 SE9       30.18F
TALLULAH       PTSUNNY   67  49  52 SE16      30.19F

$$




USA.gov is the U.S. government's official web portal to all federal, state and local government web resources and services.